Find Starlink 6216

NORAD ID: 56893 Int'l Des: 2023-083 Owner: SPXS Country: US Constellation: starlink operational
LEOCIRCULAR

リアルタイム位置

3D地球を読み込み中...

Starlink 6216について

説明を読み込み中...

次回通過

Passes for default location (London). Set your location on the main map for personalized predictions.

高度履歴

Loading altitude history...

軌道要素

1 56893U 23083T 26126.23642253 -.00003241 00000-0 -10834-3 0 9992
2 56893 43.0023 120.0092 0001640 261.8956 98.1710 15.27567454160556
Epoch: May 6, 2026 • Age: 8 hours

現在のステータス

高度 483.6 km
速度 7.63 km/s
衛星直下点 -4.54°S, 46.52°E
打ち上げ日 Jun 12, 2023
運用期間 2.8 years
タイプ internet

技術仕様

分類 Payload
質量 305.00 kg
乾燥質量 290.00 kg
総質量 305.00 kg
長さ 0.20 m
直径 2.80 m
スパン 9.00 m
形状 Box + pan
製造者 SPXS
バスタイプ Starlink
フェーズステータス In Orbit
所有者/国 SPXS/US

Most Searched